Home > Weather > Garland > Past weeks

Flag for U.S.A. Weather for the Past 2 Weeks in Garland, Texas, U.S.A.

Now
41 °F

Sunny.


Feels Like: 37 °F
Forecast: 38 / 54 °F
Wind: 6 mph from Northeast

Location: Mesquite Metro Airport

Current Time: Feb 6, 2016 at 8:29:26 AM

Latest Report: Feb 6, 2016 at 7:50 AM


Visibility: 10 mi

Pressure: 30.28 "Hg

Humidity: 87%

Dew point: 37 °F

Location of GarlandLocation

Historic Weather in Garland — Graph

°F

Garland Temperature Yesterday

Maximum temperature yesterday: 55 °F (at 1:50 PM)
Minimum temperature yesterday: 30 °F (at 6:50 AM)
Average temperature yesterday: 41 °F

High & Low Weather Summary for the Past Weeks

 TemperatureHumidityPressure
High75 °F (Jan 29, 1:50 PM)94% (Jan 25, 7:50 AM)30.52 "Hg (Jan 25, 7:50 AM)
Low28 °F (Jan 23, 3:35 AM)17% (Feb 2, 3:50 PM)29.54 "Hg (Feb 1, 5:50 PM)
Average47 °F62%30.08 "Hg
* Reported Jan 22 6:50 AM — Feb 6 6:50 AM, Garland, Weather by CustomWeather, © 2016

Note: Actual official high and low records may vary slightly from our data, if they occured in-between our weather recording intervals... More about our weather records

Advertising

Garland Weather History for the Previous 24 Hours

 ConditionsComfort  
Time TempWeatherWind HumidityBarometerVisibility
6:50 AM
Sat, Feb 6
37 °FClear.6 mph93%30.26 "Hg10 mi
5:15 AM39 °FPassing clouds.6 mph91%30.23 "Hg10 mi
4:55 AM39 °FPassing clouds.7 mph91%30.23 "Hg10 mi
4:35 AM39 °FClear.6 mph88%30.23 "Hg10 mi
4:15 AM39 °FClear.7 mph88%30.22 "Hg10 mi
3:55 AM39 °FClear.7 mph88%30.23 "Hg10 mi
3:35 AM40 °FClear.6 mph85%30.24 "Hg10 mi
3:15 AM41 °FClear.8 mph82%30.24 "Hg10 mi
2:55 AM41 °FClear.9 mph83%30.25 "Hg10 mi
2:15 AM42 °FOvercast.9 mph74%30.26 "Hg10 mi
1:55 AM42 °FMostly cloudy.10 mph68%30.27 "Hg10 mi
1:35 AM45 °FMostly cloudy.12 mph52%30.28 "Hg10 mi
1:15 AM46 °FMostly cloudy.8 mph45%30.28 "Hg10 mi
12:55 AM44 °FMostly cloudy.7 mph47%30.28 "Hg10 mi
12:15 AM45 °FOvercast.10 mph49%30.28 "Hg10 mi
11:55 PM
Fri, Feb 5
45 °FMostly cloudy.8 mph49%30.28 "Hg10 mi
11:35 PM44 °FOvercast.9 mph51%30.28 "Hg10 mi
11:15 PM44 °FPassing clouds.8 mph50%30.29 "Hg10 mi
10:55 PM43 °FClear.10 mph48%30.29 "Hg10 mi
10:15 PM44 °FClear.8 mph45%30.29 "Hg10 mi
9:55 PM45 °FClear.9 mph43%30.29 "Hg10 mi
9:15 PM46 °FClear.9 mph41%30.29 "Hg10 mi
8:55 PM45 °FClear.10 mph42%30.30 "Hg10 mi
8:15 PM44 °FClear.7 mph43%30.32 "Hg10 mi
7:55 PM45 °FClear.5 mph41%30.33 "Hg10 mi
7:15 PM46 °FClear.5 mph39%30.33 "Hg10 mi
5:50 PM52 °FSunny.9 mph30%30.31 "Hg10 mi
4:50 PM55 °FSunny.10 mph26%30.31 "Hg10 mi
3:50 PM55 °FSunny.13 mph26%30.32 "Hg10 mi
2:50 PM55 °FSunny.13 mph31%30.33 "Hg10 mi
1:50 PM55 °FSunny.12 mph31%30.35 "Hg10 mi
12:50 PM54 °FSunny.13 mph28%30.38 "Hg10 mi
11:50 AM54 °FSunny.13 mph33%30.43 "Hg10 mi
10:50 AM50 °FSunny.12 mph40%30.46 "Hg10 mi
9:50 AM45 °FSunny.10 mph53%30.48 "Hg10 mi
8:50 AM37 °FSunny.6 mph75%30.47 "Hg10 mi
Weather by CustomWeather, © 2016

See weather overviewHow to use our weather pages